sat.trackr.live / text

‹ back to catalog

PRETTY

NORAD 58023 · 2023-155H

PAYLOAD ACTIVE UNKNOWN

§ Identity

Operator
Country
ASRA
Launch date
2023-10-09
Launch site
FRGUI
Launch vehicle
Mass (kg)
RCS (m²)

External: N2YO · Heavens-Above · Gunter

§ Orbital elements

Epoch: 2026-09-21T17:52:12.989856Z

Period
94.44 min
Inclination
97.5638°
Eccentricity
0.0002931
Mean motion
15.24838154 rev/d
Perigee alt
489.3 km
Apogee alt
493.3 km
Semi-major
6,869.4 km
B*
1.5004e-4
RAAN
347.2701°
Arg perigee
72.2140°
Mean anomaly
287.9417°
Rev number
16,306

§ Raw data

PRETTY1 58023U 23155H   26264.74459479  .00003651  00000+0  15004-3 0  99902 58023  97.5638 347.2701 0002931  72.2140 287.9417 15.24838154163068

JSON: /api/v1/satellites/58023 · /tle

For live sub-satellite position, see the globe view (requires WebGL).

§ Visibility from observer

Set your observer location to see the next 7 days of passes ≥ 10°. The values pass through the URL so the page stays shareable.

No JS? Fill the form by hand. The geolocation button needs JavaScript.

§ Radio — SatNOGS DB

ModeDescriptionDownlinkUplink
FM Mode S 2.244 GHz
GFSK Mode V - TLM 137.740 MHz
BPSK S-band telemetry 2.250 GHz

3 transmitters · refreshed weekly from db.satnogs.org